Regional Weather Roundup
Issued by NWS

Home | Current Version | Previous Version | Text Only | Print | Product List | Glossary On
Versions: 1 2 3 4 5 6 7 8 9 10 11 12 13 14 15 16 17 18 19 20 21 22 23 24 25 26 27 28 29 30 31 32 33 34 35 36 37 38 39 40 41 42 43 44 45 46 47 48 49 50
000
ASUS44 KBMX 210610
RWRAL

ALABAMA REGIONAL WEATHER ROUNDUP
NATIONAL WEATHER SERVICE BIRMINGHAM AL
100 AM CDT TUE APR 21 2015

NOTE: "FAIR" INDICATES FEW OR NO CLOUDS BELOW 12,000 FEET
WITH NO SIGNIFICANT WEATHER AND/OR OBSTRUCTIONS TO VISIBILITY.

THE REMARK "TC" DENOTES TEMPERATURE IN DEGREES CELSIUS.

ALZ001>011-014-016>018-020-210700-
NORTH ALABAMA

CITY           SKY/WX    TMP DP  RH WIND       PRES   REMARKS
MUSCLE SHOALS  FAIR      49  43  80 CALM      29.96S
6HR MIN TEMP:  48; 6HR MAX TEMP:  60;

HUNTSVILLE     FAIR      52  48  86 CALM      29.95R
6HR MIN TEMP:  52; 6HR MAX TEMP:  62;

DECATUR        FAIR      47  46  97 CALM      29.95S
6HR MIN TEMP:  47; 6HR MAX TEMP:  62;

HALEYVILLE       N/A     45  45 100 CALM      29.98F
6HR MIN TEMP:  45; 6HR MAX TEMP:  60;

GADSDEN        FAIR      54  41  62 NW6       29.94S
6HR MIN TEMP:  54; 6HR MAX TEMP:  63;

$$

ALZ012-013-022-023-030>036-040>044-210700-
WEST CENTRAL ALABAMA

CITY           SKY/WX    TMP DP  RH WIND       PRES   REMARKS
TUSCALOOSA     FAIR      54  47  77 NW3       29.97F
6HR MIN TEMP:  54; 6HR MAX TEMP:  67;

$$

ALZ015-024>027-033>036-040>044-210700-
CENTRAL ALABAMA

CITY           SKY/WX    TMP DP  RH WIND       PRES   REMARKS
BIRMINGHAM     FAIR      56  45  66 W5        29.97F
6HR MIN TEMP:  55; 6HR MAX TEMP:  66;

MONTGOMERY     FAIR      58  49  72 NW5       29.95S
6HR MIN TEMP:  58; 6HR MAX TEMP:  72;

SHELBY CO ARPT FAIR      55  45  68 NW3       29.96S
6HR MIN TEMP:  55; 6HR MAX TEMP:  67;

MAXWELL AFB    FAIR      58  50  75 NW5       29.94S
6HR MIN TEMP:  58; 6HR MAX TEMP:  72;

GREENVILLE     FAIR      59  48  67 NW3       29.94S
6HR MIN TEMP:  59; 6HR MAX TEMP:  72;

$$

ALZ019-021-028-029-037-038-045>048-210700-
EAST CENTRAL ALABAMA

CITY           SKY/WX    TMP DP  RH WIND       PRES   REMARKS
ANNISTON       FAIR      57  44  62 VRB5      29.95R
6HR MIN TEMP:  57; 6HR MAX TEMP:  68;

ALEXANDER CITY FAIR      57  46  68 NW3       29.94F
6HR MIN TEMP:  57; 6HR MAX TEMP:  72;

AUBURN         FAIR      55  45  67 NW8       29.95F
6HR MIN TEMP:  55; 6HR MAX TEMP:  70;

$$

ALZ051>064-210700-
SOUTHWEST ALABAMA

CITY           SKY/WX    TMP DP  RH WIND       PRES   REMARKS
MOBILE         FAIR      58  51  78 NW5       29.97S
6HR MIN TEMP:  58; 6HR MAX TEMP:  73;

BROOKLEY FIELD FAIR      59  52  77 N6        29.97S
6HR MIN TEMP:  59; 6HR MAX TEMP:  75;

EVERGREEN      FAIR      57  50  77 VRB3      29.96R
6HR MIN TEMP:  57; 6HR MAX TEMP:  73;

$$

ALZ049-050-065>069-210700-
SOUTHEAST ALABAMA

CITY           SKY/WX    TMP DP  RH WIND       PRES   REMARKS
DOTHAN         FAIR      61  53  75 NW8       29.96R
6HR MIN TEMP:  61; 6HR MAX TEMP:  72;

OZARK          FAIR      61  50  67 NW3       29.93R
6HR MIN TEMP:  61; 6HR MAX TEMP:  73;

TROY           FAIR      59  50  72 NW6       29.94S
6HR MIN TEMP:  59; 6HR MAX TEMP:  73;

EUFAULA        FAIR      61  52  72 VRB5      29.91S
6HR MIN TEMP:  61; 6HR MAX TEMP:  72;

$$


USA.gov is the U.S. government's official web portal to all federal, state and local government web resources and services.